Location: Chimay
(50.0486°N, 4.3171°E)
Time: 20:00:49
(UTC+00:00)

Cosmos 1242 Rocket - Pass Details

Date: 08 August 2020
Orbit: 448 x 486 km, 81.2° (Epoch: 22 September)

Event Time Altitude Azimuth Distance (km) Brightness Sun altitude
Rises 23:41:27 0° 337° (NNW) 2,531 7.3 -24.2°
Reaches altitude 10° 23:43:48 10° 323° (NW) 1,654 6.0 -24.2°
Enters shadow 23:46:00 22° 288° (WNW) 1,081 4.5 -24.2°
